Погода в Полтавке

Погода в Полтавке : погода сейчас, прогноз погоды и архив. Всё, что Вы хотите узнать о погоде в Полтавке!

Хотите узнать прогноз погоды в Полтавке? Тогда Вам сюда: Погода в Полтавке

Поиск расширенной информации на нашем сайте:

Другие новости

Новости СМИ2

Главная страница сайта

Новости сайта

03.07.2017

Напоминаем, что на нашем специализированном сайте Метеоцентр.Азия вы можете получить высокодетализированные автоматические прогнозы погоды по пунктам России, СНГ и мира в авиационном формате (включающие направление и скорость ветра, видимость, явления погоды, количество и форму облачности, нижнюю и верхнюю границу облачности).


Погода в Полтавке - сегодня

Время (UTC), дата Ветер
(°,м/с) 
Видим.   Явления Облачность Т
(°С)
Тd
(°С)
f(%) Тe
(°С)
Pmin
(гПа)
dP
(гПа)
Po
(мм)
O2
(г/м3)
Тmin Tmax R s Состояние
почвы
00 14.11.18 250 (З) 10 км    10/10 1320 м 
[Sc]
-4.3 -7.4 79 -7  1033.2  -0.6  763  313           
03 14.11.18 240 (ЮЗ) 20000 м    8/0 средняя, верхняя 
[Ac und|Ci fib]
-7.5 -10.5 79 -11  1032.8  -0.6  762  317  -7.7      равномерный
сухой снег
100% 
06 14.11.18 260 (З) 20000 м    3/0 верхняя 
[Ci fib]
-6.6 -11.7 67 -10  1032.6  -0.2  762  316  -8.1         
09 14.11.18 250 (З) 20000 м    8/0 верхняя 
[Ci fib]
-4.5 -11.5 58 -8  1031.5  -1  761  313           
12 14.11.18 250 (З) 20000 м    4/0 верхняя 
[Ci fib]
-6.8 -11.1 71 -9  1031.5  761  316           
18 14.11.18 260 (З) 10 км    3/0 верхняя 
[Ci sp]
-7.2 -11.9 69 -11  1030.2  -0.4  760  316           
00 15.11.18 270 (З) 10 км    3/0 верхняя 
[Ci sp]
-6.7 -12.2 65 -10  1030.2  0.1  761  315           
03 15.11.18 270 (З) 20000 м    8/0 средняя, верхняя 
[Ac und|Ci sp]
-7.7 -12.5 68 -11  1031.4  1.1  761  317  -7.7      равномерный
сухой снег
100% 
09 15.11.18 270 (З) 20000 м    8/0 средняя, верхняя 
[Ac und|Ci sp]
-4.4 -10.4 63 -8  1032.6  0.2  762  313           
12 15.11.18 280 (З) 20000 м    8/0 средняя, верхняя 
[Ac und|Ci sp]
-3.7 -9 67 -7  1033.8  1.2  763  313           
15 15.11.18 290 (З) 10 км    ясно 
-7.2 -9.9 81 -9  1035.3  1.2  764  317    -3.4       
18 15.11.18 300 (СЗ) 4000 м  слаб. снег  10/0 средняя 
[As op]
-5.5 -8.6 79 -7  1036.4  1.3  765  316           
00 16.11.18 300 (СЗ) 10 км  {снег}  10/0 средняя 
[Ac As]
-4.8 -5.8 93 -7  1039.4  1.5  767  315           
03 16.11.18 290 (З) 20000 м    10/10 1080 м 
[Sc]
-4.5 -5.7 91 -4  1040.8  1.3  768  315  -8.9    0.5  равномерный
сухой снег
100% 
06 16.11.18 040 (СВ) 20000 м    10/10 720 м 
[Sc]
-2.9 -5.5 82 -2  1041.5  0.7  769  314           
09 16.11.18 170 (Ю) 20000 м    10/10 600 м 
[St]
-2.6 -4.8 85 -4  1040.9  -0.5  769  313           
12 16.11.18 190 (Ю) 20000 м    10/10 660 м 
[St]
-3 -4.7 88 -3  1039.8  -1.1  768  313           
15 16.11.18 180 (Ю) 4000 м  слаб. снег  10/10 600 м 
[Ns]
-3.9 -5.2 91 -5  1037.8  -2  766  314    -2.5  0.2     
21 16.11.18 200 (Ю) н/о    н/о 
-4.6 -5 97 -6  1031.4  -3.3  761  313           
03 17.11.18 200 (Ю) 4000 м  слаб. снег  10/10 480 м 
[Ns]
-4.7 -5.2 96 -7  1023.8  -3.9  756  310  -5    равномерный
сухой снег
100% 
09 17.11.18 270 (З) 4000 м  слаб. снег  10/0 средняя 
[As op]
-1.5 -1.9 97 -3  1017.1  -2.9  751  305           
12 17.11.18 270 (З) 4000 м  слаб. снег  10/0 средняя 
[As op]
-2.4 -2.7 98 -3  1016  -1.1  750  305           
15 17.11.18 350 (С) 4000 м  слаб. снег  10/10 600 м 
[Ns]
-4 -4.4 97 -5  1015.8  -0.3  750  307    -1.5     
21 17.11.18 350 (С) 10 км    10/10 840 м 
[Sc]
-5.4 -6.3 93 -9  1017.4  1.1  751  309           
03 18.11.18 350 (С) 20000 м  позёмок{снег}  10/10 540 м 
[St]
-6.6 -8 90 -11  1021.5  2.5  754  312  -6.6    0.4  10  равномерный
сухой снег
100% 
Время (UTC), дата Ветер
(°,м/с) 
Видим.   Явления Облачность Т
(°С)
Тd
(°С)
f(%) Тe
(°С)
Pmin
(гПа)
dP
(гПа)
Po
(мм)
O2
(г/м3)
Тmin Tmax R s Состояние
почвы

Для получения пояснительной информации подведите курсор к названию столбца.

ПОГОДА в Полтавке - архив

Всё, что Вы хотите узнать о погоде в Полтавке - удобно и подробно!

Выберите нужную дату (начиная с 1 января 2015* года) и нажмите кнопку "Найти".
Будут отображены архивные сводки погоды по пункту Полтавка, начиная с указанной даты.


Отображать данные в формате CSV (для использования в таблицах Excel)


Внимание! Наш архив погоды предназначен исключительно для личного некоммерческого использования в познавательных целях. Если Вам необходимы официальные справки о состоянии погоды (для производственных, юридических, коммерческих и т.п. целей), обращайтесь в органы Росгидромета.

*Примечание: данная дата относится к архиву по метеостанциям СССР (Россия, СНГ, Балтия).
Архив по метеостанциям Зарубежной Европы и Азии (кроме Китая) хранится 10 дней, по другим регионам земного шара (Китай, Африка, Америка, Австралия, Океания) - 1 день.

Полтавка - район местоположения метеостанции


Название, широта, долгота, высота метеостанции:
Полтавка 54.4°ш. 71.8°д. 125 м над ур. моря [Российская Федерация]

Дополнительная информация

В oтличие oт бoльшинства пoгoдных сайтoв мы публикуем пoдрoбную метеoинфoрмацию в детальнoм прoфессиoнальнoм фoрмате.

Характеристики температуры и влажнoсти вoздуха измеряются на высoте 2 м в тени вдали oт зданий и деревьев.
Скoрoсть ветра измеряется на высoте 10 м (на урoвне рoста челoвека скoрoсть ветра ниже в 1.5-2 раза). Если метеoстанция нахoдится в гoрoде или в лесу, тo скoрoсть ветра занижена на 2-4 м/с пo сравнению с oткрытым местoм. Скoрoсть ветра над акватoриями крупных рек и oзёр, а также на вершинах хoлмoв на 2-5 м/с выше, чем в oбычных услoвиях.
Атмoсфернoе давление в разных тoчках местнoсти мoжет значительнo oтличаться oт давления на метеoстанции, в зависимoсти oт услoвий рельефа (при пoдъёме на 10 м давление пoнижается примернo на 1 мм рт.ст.).